Location: Bosdarros
(43.2167°N, 0.3667°W)
Time: 16:24:19
(UTC+00:00)

Cosmos 1850 Rocket - Pass Details

Date: 22 April 2021
Orbit: 753 x 786 km, 74.0° (Epoch: 13 May)

Event Time Altitude Azimuth Distance (km) Brightness Sun altitude
Exits shadow 22:08:07 69° 309° (NW) 815 4.2 -28.7°
Drops below altitude 10° 22:13:09 10° 16° (NNE) 2,313 7.0 -29.2°
Sets 22:15:34 0° 19° (NNE) 3,249 7.8 -29.4°
